CZ-3C DEB, 39351

Orbit data source: Space-Track

CZ-3C DEB, 39351 is space debris in HEO originally from a launch on Sun, 31 Oct 2010 UTC launched from the Xichang Space Center, China (XSC). Debris objects in space refer to the collection of defunct objects orbiting the Earth. Examples of debris include non-operational satellites, rocket bodies, and fragments generated from explosions, collisions, or faulty payload assembly.

Loading next visibility...
Identifier
39351, 2010-057R
Orbit
HEO
Country
Flag of CNCN / PRC
Related business
Manufacturer
CALT
Mission
Spacecraft
Bus & Motor
Unknown
Mass
Unknown
Launch date (UTC)
2010-10-31 (15 years ago)
Launch vehicle
Unknown
Launch site
Xichang Space Center, China (XSC)
Object type
Payload
Rocket body
Debris
Shape & HBR
Unknown shape, 0.3 m
Radar Cross Section
Medium (>0.1 m² and <1 m²)

Expand to show TLE details & history
Last TLE update: 3 days ago

TLE from 3 days ago
0 CZ-3C DEB
1 39351U 10057R   25347.21922397  .00000086  00000-0  29157-2 0  9990
2 39351  20.3807 170.9689 7071688  15.0385  95.3616  2.26499320100808
Epoch: 2025-12-13T05:15Z
TLE epoch observation values (Epoch: 2025-12-13T05:15:40.951Z)
Latitude
2.78119°
Longitude
-177.66277°
Altitude
28,628.927 km
Speed
2.549 km/s
True Right ascension
22h 53m 37s
True Declination
2° 46' 40"
Sunlit
Object was in daylight at epoch
Visualization orbit readout
Latitude
Unknown
Longitude
Unknown
Altitude
Unknown
Speed
Unknown
Apparent Right ascension
Unknown
Apparent Declination
Unknown
Sunlit
N/A
Visualization observer readout
Local Sidereal Time
08:50:33
Azimuth
Unknown
Elevation
Unknown
Doppler factor
Unknown
Orbital elements
Apogee altitude
35,440.94 km
Perigee altitude
795.102 km
Semi-major axis
24,496.158 km
Eccentricity
0.70717
Inclination
20.3807°
RAAN
170.9689°
Arg. of periapsis
15.0385°
True anomaly
156.91535°
Mean anomaly
95.3616°
Eccentric anomaly
127.50456°
Mean motion
0.5661 °/min
Orbital period
635.93 mins
BSTAR
0.0029157
Loading maneuver chart data...
Computing Atmospheric mass density...
Loading historical data...
Loading historical data...
Loading historical data...
Loading historical data...
Loading historical data...
Loading historical data...
Loading historical data...

Documentation

Showing up to 5 results
|